Location: Kershaw
(34.5481°N, 80.5823°W)
Time: 05:03:22
(UTC+00:00)

Transit 2A Rocket - Pass Details

Date: 08 October 2022
Orbit: 589 x 911 km, 66.7° (Epoch: 27 November)

Event Time Altitude Azimuth Distance (km) Brightness Sun altitude
Exits shadow 10:17:20 22° 283° (WNW) 1,291 5.6 -14.2°
Maximum altitude 10:18:17 24° 304° (NW) 1,226 5.6 -14.0°
Drops below altitude 10° 10:21:49 10° 360° (N) 1,928 7.1 -13.3°
Sets 10:24:25 0° 14° (NNE) 2,852 8.2 -12.7°
